Torna al catalogo

FLOCK 4Q 7

AttivoScienzaSSO
NORAD 58318·PAYLOAD·🇺🇸 United States

Lanciato Nov 11, 2023 da Vandenberg Space Force Base

Loading…

Prossimi Passaggi (prossime 24 ore)

TLE

AggiornatoSource: Space-Track

Epoca: Sep 14, 2026, 21:42 UTC

1 58318U 23174BQ  26257.90437341  .00032124  00000-0  35857-3 0  9998
2 58318  97.3891 352.8146 0004204 178.2343 181.8930 15.62723030159724

Traccia FLOCK 4Q 7 in tempo reale con AllMySat

Download on the App Store